Regional Weather Roundup
Issued by NWS Northern Indiana

Home | Current Version | Previous Version | Text Only | Print | Product List | Glossary On
Versions: 1 2 3 4 5 6 7 8 9 10 11 12 13 14 15 16 17 18 19 20 21 22 23 24 25 26 27 28 29 30 31 32 33 34 35 36 37 38 39 40 41 42 43 44 45 46 47 48 49 50
000
ASUS43 KIWX 240610
RWRIWX

KIWX WEATHER ROUNDUP
NATIONAL WEATHER SERVICE NORTHERN INDIANA
100 AM EST SAT FEB 24 2018

NOTE: "FAIR" INDICATES FEW OR NO CLOUDS BELOW 12,000 FEET WITH NO
SIGNIFICANT WEATHER AND/OR OBSTRUCTIONS TO VISIBILITY.

* THESE STATIONS ARE NOT UNDER NWS QUALITY CONTROL. THEY ALSO MAY NOT
  REPORT WEATHER SUCH AS PRECIPITATION OR FOG.

INZ001>027-240700-
NORTHERN INDIANA

CITY           SKY/WX    TMP DP  RH WIND       PRES   REMARKS
GARY*          CLOUDY    39  33  80 N7        30.26S
VALPARAISO     CLOUDY    38  34  85 CALM      30.25F
6HR MIN TEMP:  38; 6HR MAX TEMP:  40;

MICHIGAN CITY* CLOUDY    36  32  87 N3        30.26S
LAPORTE*       CLOUDY    37  32  84 N5        30.26R
6HR MIN TEMP:  36; 6HR MAX TEMP:  39; 6HR PCP:  0.02;

SOUTH BEND     CLOUDY    36  31  82 N7        30.25F
6HR MIN TEMP:  36; 6HR MAX TEMP:  39;

GOSHEN         CLOUDY    37  33  85 N8        30.25R
6HR MIN TEMP:  37; 6HR MAX TEMP:  42;

MONTICELLO*    CLOUDY    37  35  94 N7        30.24R
6HR MIN TEMP:  37; 6HR MAX TEMP:  41;

LOGANSPORT*    CLOUDY    37  36  93 N6        30.24S
ROCHESTER*     CLOUDY    39  37  93 NW7       30.23F
WARSAW*        CLOUDY    36  36 100 N9        30.24S FOG
AUBURN*        CLOUDY    37  37 100 NW13      30.23R FOG
FORT WAYNE     CLOUDY    42  39  89 NW12      30.23R
6HR MIN TEMP:  42; 6HR MAX TEMP:  46;

HUNTINGTON*    CLOUDY    40  38  95 NW6       30.22R
6HR MIN TEMP:  39; 6HR MAX TEMP:  45;

PERU/GRISSOM   CLOUDY    39  39 100 NW6       30.22R FOG
6HR MIN TEMP:  39; 6HR MAX TEMP:  44;

MARION*        CLOUDY    40  39  97 CALM      30.23R FOG
6HR MIN TEMP: -17; 6HR MAX TEMP:  70;


$$
INZ028>050-240700-
CENTRAL INDIANA

CITY           SKY/WX    TMP DP  RH WIND       PRES   REMARKS
LAFAYETTE      CLOUDY    37  37 100 N8        30.25R
6HR MIN TEMP:  37; 6HR MAX TEMP:  43;

KOKOMO*        CLOUDY    39  38  96 N7        30.23R FOG
6HR MIN TEMP:  39; 6HR MAX TEMP:  44;

MUNCIE*        CLOUDY    45  42  89 N8        30.21R
6HR MIN TEMP:  45; 6HR MAX TEMP:  50;

INDIANAPOLIS   LGT RAIN  44  42  93 NW12      30.22R
6HR MIN TEMP:  44; 6HR MAX TEMP:  49; 6HR PCP: TRACE;


$$
MIZ043>046-050>051-056>058-064>065-071>073-077>080-240700-
SOUTHWEST LOWER MICHIGAN

CITY           SKY/WX    TMP DP  RH WIND       PRES   REMARKS
BATTLE CREEK   CLOUDY    36  32  85 W6        30.25R
6HR MIN TEMP:  36; 6HR MAX TEMP:  39;

BENTON HARBOR  CLOUDY    37  31  78 VRB3      30.27R
6HR MIN TEMP:  36; 6HR MAX TEMP:  37;

COLDWATER*     CLOUDY    36  36  99 N7        30.25R
6HR MIN TEMP:  36; 6HR MAX TEMP:  41;

HILLSDALE*     CLOUDY    36  32  87 NW10      30.22R
HOLLAND        CLOUDY    36  30  79 VRB3      30.27R
6HR MIN TEMP:  36; 6HR MAX TEMP:  38;

GRAND RAPIDS   CLOUDY    37  30  75 NW7       30.25R
6HR MIN TEMP:  36; 6HR MAX TEMP:  38;

KALAMAZOO      CLOUDY    37  31  78 NW8       30.26R
6HR MIN TEMP:  37; 6HR MAX TEMP:  40;

STURGIS*       CLOUDY    37  34  88 N7        30.23S
6HR MIN TEMP:  37; 6HR MAX TEMP:  42;

THREE RIVERS*  CLOUDY    37  32  82 N7        30.24F
6HR MIN TEMP:  37; 6HR MAX TEMP:  41;


$$
OHZ001>008-015>018-024>025-240700-
NORTHWEST OHIO

CITY           SKY/WX    TMP DP  RH WIND       PRES   REMARKS
WAUSEON*       CLOUDY    39  39 100 NW9       30.23R
DEFIANCE       CLOUDY    41  37  86 NW10      30.23S
6HR MIN TEMP:  41; 6HR MAX TEMP:  47;

FINDLAY        CLOUDY    46  40  79 NW10      30.20S
6HR MIN TEMP:  46; 6HR MAX TEMP:  51;

TOLEDO EXPRESS CLOUDY    41  39  93 NW8       30.23R
6HR MIN TEMP:  41; 6HR MAX TEMP:  48;

TOLEDO METCALF CLOUDY    43  38  82 NW7       30.23S
6HR MIN TEMP:  43; 6HR MAX TEMP:  50;

LIMA           CLOUDY    43  42  97 NW9       30.20R
6HR MIN TEMP:  43; 6HR MAX TEMP:  50;


$$
AND FOR LAKE MICHIGAN COASTAL AND OPEN LAKE BUOY OBSERVATIONS

STATION/POSITION TEMP    WIND        PRES    VSBY  WAVE
                 AIR SEA DIR/SP/G                  HT/PER
                 (F)     (DEG/KT/KT) (MB)    (MI)  (FT/S)
CALUMET HARBOR    37     300/  5/  7 1023.9F
MICHIGAN CITY     36     320/  6/  6   N/A
BURNS HARBOR      36     340/  5/  7 1025.1F
SAINT JOSEPH      34     350/  2/  4 1025.1

$$
&&




USA.gov is the U.S. government's official web portal to all federal, state and local government web resources and services.